Regional Weather Roundup
Issued by NWS

Home | Current Version | Previous Version | Graphics & Text | Print | Product List | Glossary On
Versions: 1 2 3 4 5 6 7 8 9 10 11 12 13 14 15 16 17 18 19 20 21 22 23 24 25 26 27 28 29 30 31 32 33 34 35 36 37 38 39 40 41 42 43 44 45 46 47 48 49 50
380
ASUS44 KLIX 211601
RWRLA
LOUISIANA WEATHER ROUNDUP
NATIONAL WEATHER SERVICE NEW ORLEANS LA
1000 AM CST SUN DEC 21 2014

NOTE: "FAIR" INDICATES FEW OR NO CLOUDS BELOW 12,000 FEET WITH NO
      SIGNIFICANT WEATHER AND/OR OBSTRUCTIONS TO VISIBILITY.
      SKY/WX - SKY CONDITION AND SIGNIFICANT WEATHER.
      TMP - AIR TEMPERATURE.    DP   - DEWPOINT TEMPERATURE.
      RH  - RELATIVE HUMIDITY.  PRES - PRESSURE.
      HX  - HEAT INDEX.         WCI  - WIND CHILL INDEX.

*  THESE STATIONS ARE NOT NWS OR FAA STATIONS AND ARE NOT UNDER
   NWS QUALITY CONTROL.

LAZ040-048-061>063-065-066-069-211700-
SOUTHEAST LOUISIANA

CITY           SKY/WX    TMP DP  RH WIND       PRES   REMARKS
N.O. AUDUBON     N/A     55  50  82 MISG        N/A
N.O. INTL ARPT CLOUDY    54  48  80 E6        30.12R
N.O. LAKEFRONT CLOUDY    55  48  77 E6        30.13R
N.O. DOWNTOWN* CLOUDY    54  46  76 CALM      30.12S
SLIDELL        CLOUDY    54  47  77 NE5       30.11S
BATON ROUGE    CLOUDY    51  45  79 E5        30.13S
BOOTHVILLE     CLOUDY    57  54  89 NE6       30.11S
BELLE CHASSE   CLOUDY    55  50  83 E3        30.11S
BOGALUSA*        N/A     52  45  79 NE5       30.15R
GALLIANO*      NOT AVBL
NEW ROADS*     NOT AVBL
GONZALES*      NOT AVBL
HAMMOND*       NOT AVBL
HOUMA*         CLOUDY    54  50  87 NE7       30.12S FOG
PORT FOURCHON* NOT AVBL

$$

LAZ041-044-053-054-211700-
SOUTHWEST LOUISIANA

CITY           SKY/WX    TMP DP  RH WIND       PRES   REMARKS
LAKE CHARLES   FOG       46  46 100 E6        30.13F VSB 1/4
LAFAYETTE      CLOUDY    50  48  93 NE3       30.15R FOG
PATTERSON      CLOUDY    54  48  82 NE3       30.14R
SALT POINT       N/A     56  50  80 NE3       30.12R
NEW IBERIA     CLOUDY    52  48  86 NE5       30.14R FOG
CHENAULT AIRPK FOG       46  46 100 CALM      30.15S VSB 1/4

$$

LAZ027-028-211700-
CENTRAL LOUISIANA

CITY           SKY/WX    TMP DP  RH WIND       PRES   REMARKS
FORT POLK      SUNNY     50  46  88 VRB5      30.12F
ALEXANDRIA INT SUNNY     49  44  83 E7        30.13F
ALEXANDRIA     PTSUNNY   48  43  82 E6        30.15F

$$

LAZ001-002-211700-
NORTHWEST LOUISIANA

CITY           SKY/WX    TMP DP  RH WIND       PRES   REMARKS
SHREVEPORT     CLOUDY    45  41  86 E5        30.15S
BARKSDALE AFB  NOT AVBL
DTN SHREVEPORT CLOUDY    42  38  85 VRB3      30.16S

$$

LAZ014-016-211700-
NORTHEAST LOUISIANA

CITY           SKY/WX    TMP DP  RH WIND       PRES   REMARKS
MONROE         SUNNY     48  41  76 E6        30.17F
TALLULAH       SUNNY     50  39  66 E6        30.17R

$$




USA.gov is the U.S. government's official web portal to all federal, state and local government web resources and services.